This is the latest recevied weather packets stored in our database for station/object CQ0XCR-11. If no packets are shown the sender has not sent any weather packets the latest 1 day(s).
| Time | Temp. | Humidity | Pressure | Rain* | Wind** | Luminosity | Snow |
|---|---|---|---|---|---|---|---|
| 1778033003 | -2.78° C | - | 6550.2 hPa | 0.25 mm | 0 m/s | - | - |
| 1778032879 | -2.78° C | - | 6550.2 hPa | 0.25 mm | 0 m/s | - | - |
| 1778032755 | -2.78° C | - | 6550.2 hPa | 0.25 mm | 0.45 m/s, 345° | - | - |
| 1778032631 | -2.78° C | - | 6550.2 hPa | 0.25 mm | 0.45 m/s, 317° | - | - |
| 1778032507 | -2.78° C | - | 6550.2 hPa | 0.25 mm | 0.89 m/s, 313° | - | - |
| 1778032383 | -2.78° C | - | 6550.2 hPa | 0.25 mm | 0 m/s | - | - |
| 1778032260 | -2.78° C | - | 6550.2 hPa | 0.25 mm | 0 m/s | - | - |
| 1778032135 | -2.78° C | - | 6550.2 hPa | 0.25 mm | 0.45 m/s, 315° | - | - |
| 1778032011 | -2.78° C | - | 6550.2 hPa | 0.25 mm | 0.45 m/s, 0° | - | - |
| 1778031887 | -2.78° C | - | 6550.2 hPa | 0.25 mm | 1.34 m/s, 338° | - | - |
| 1778031800 | -2.78° C | - | 6550.2 hPa | 0.25 mm | 0 m/s | - | - |
| 1778031764 | -2.78° C | - | 6550.2 hPa | 0.25 mm | 0 m/s | - | - |
| 1778031639 | -2.78° C | - | 6550.2 hPa | 0.25 mm | 1.34 m/s, 45° | - | - |
| 1778031516 | -2.78° C | - | 6550.2 hPa | 0.25 mm | 1.34 m/s, 54° | - | - |
| 1778031426 | -2.78° C | - | 6550.2 hPa | 0.25 mm | 0.89 m/s, 45° | - | - |
| 1778031391 | -2.78° C | - | 6550.2 hPa | 0.25 mm | 0.89 m/s, 45° | - | - |
| 1778031267 | -2.78° C | - | 6550.2 hPa | 0.25 mm | 0.89 m/s, 45° | - | - |
| 1778031143 | -2.78° C | - | 6550.2 hPa | 0.25 mm | 0.45 m/s, 45° | - | - |
| 1778031019 | -2.78° C | - | 6550.2 hPa | 0.25 mm | 0.89 m/s, 45° | - | - |
| 1778030927 | -2.78° C | - | 6550.2 hPa | 0.25 mm | 0 m/s | - | - |
| 1778030895 | -2.78° C | - | 6550.2 hPa | 0.25 mm | 0 m/s | - | - |
| 1778030771 | -2.78° C | - | 6550.2 hPa | 0.25 mm | 0.89 m/s, 42° | - | - |
| 1778030647 | -2.78° C | - | 6550.2 hPa | 0.25 mm | 1.34 m/s, 19° | - | - |
| 1778030599 | -2.78° C | - | 6550.2 hPa | 0.25 mm | 1.34 m/s, 45° | - | - |
| 1778030523 | -2.78° C | - | 6550.2 hPa | 0.25 mm | 1.34 m/s, 45° | - | - |
* Rain since midnight (hover to see other rain measurements)
** Current wind speed in m/s (hover to see current wind gust speed)